KSDF Airport Diagram

We have created a template for each of the higher traffic airports in the vZID airspace. They include KCMH, KCRW, KCVG, KDAY, KIND, KLEX and KSDF. You wil find usefull information including the airport diagram, weather, and specific airport procedures.

KSDF Weather

[Source: ADDS]
METAR
KSDF 260456Z 21004KT 10SM FEW250 23/17 A3008 RMK AO2 SLP181 T02330167 403000200 =
KSDF 260520Z 2606/2712 20004KT P6SM SCT250 FM261500 21008KT P6SM FEW040 FM270100 19003KT P6SM SCT250
TAF
KSDF 260520Z 2606/2712 20004KT P6SM SCT250 FM261500 21008KT P6SM FEW040 FM270100 19003KT P6SM SCT250 =

KSDF Operations

Calm Wind Configuration is runways 17L and 17R.

Runway 17L typically departs north and east.

Runway 17R typicall departs south and west.

 

JSN Epic template designed by JoomlaShine.com